Year,Month,Day,Hour,Minute,Value (Times are PST for temperature in C)
2015,09,29,00,00,6.70
2015,09,29,00,01,6.70
2015,09,29,00,02,6.70
2015,09,29,00,03,6.70
2015,09,29,00,04,6.70
2015,09,29,00,05,6.70
2015,09,29,00,06,6.70
2015,09,29,00,07,6.70
2015,09,29,00,08,6.70
2015,09,29,00,09,6.70
2015,09,29,00,10,6.70
2015,09,29,00,11,6.70
2015,09,29,00,12,6.70
2015,09,29,00,13,6.70
2015,09,29,00,14,6.70
2015,09,29,00,15,6.70
2015,09,29,00,16,6.60
2015,09,29,00,17,6.60
2015,09,29,00,18,6.60
2015,09,29,00,19,6.60
2015,09,29,00,20,6.60
2015,09,29,00,21,6.60
2015,09,29,00,22,6.60
2015,09,29,00,23,6.60
2015,09,29,00,24,6.60
2015,09,29,00,25,6.60
2015,09,29,00,26,6.60
2015,09,29,00,27,6.60
2015,09,29,00,28,6.50
2015,09,29,00,29,6.50
2015,09,29,00,30,6.50
2015,09,29,00,31,6.50
2015,09,29,00,32,6.50
2015,09,29,00,33,6.50
2015,09,29,00,34,6.50
2015,09,29,00,35,6.50
2015,09,29,00,36,6.50
2015,09,29,00,37,6.50
2015,09,29,00,38,6.60
2015,09,29,00,39,6.60
2015,09,29,00,40,6.60
2015,09,29,00,41,6.50
2015,09,29,00,42,6.50
2015,09,29,00,43,6.50
2015,09,29,00,44,6.50
2015,09,29,00,45,6.40
2015,09,29,00,46,6.40
2015,09,29,00,47,6.40
2015,09,29,00,48,6.40
2015,09,29,00,49,6.40
2015,09,29,00,50,6.40
2015,09,29,00,51,6.40
2015,09,29,00,52,6.40
2015,09,29,00,53,6.40
2015,09,29,00,54,6.40
2015,09,29,00,55,6.40
2015,09,29,00,56,6.40
2015,09,29,00,57,6.40
2015,09,29,00,58,6.40
2015,09,29,00,59,6.40
2015,09,29,01,00,6.40
2015,09,29,01,01,6.40
2015,09,29,01,02,6.40
2015,09,29,01,03,6.40
2015,09,29,01,04,6.40
2015,09,29,01,05,6.50
2015,09,29,01,06,6.50
2015,09,29,01,07,6.50
2015,09,29,01,08,6.50
2015,09,29,01,09,6.50
2015,09,29,01,10,6.40
2015,09,29,01,11,6.40
2015,09,29,01,12,6.40
2015,09,29,01,13,6.30
2015,09,29,01,14,6.30
2015,09,29,01,15,6.30
2015,09,29,01,16,6.30
2015,09,29,01,17,6.20
2015,09,29,01,18,6.20
2015,09,29,01,19,6.20
2015,09,29,01,20,6.20
2015,09,29,01,21,6.20
2015,09,29,01,22,6.20
2015,09,29,01,23,6.20
2015,09,29,01,24,6.20
2015,09,29,01,25,6.20
2015,09,29,01,26,6.20
2015,09,29,01,27,6.10
2015,09,29,01,28,6.10
2015,09,29,01,29,6.10
2015,09,29,01,30,6.10
2015,09,29,01,31,6.10
2015,09,29,01,32,6.10
2015,09,29,01,33,6.10
2015,09,29,01,34,6.10
2015,09,29,01,35,6.10
2015,09,29,01,36,6.10
2015,09,29,01,37,6.00
2015,09,29,01,38,6.10
2015,09,29,01,39,6.10
2015,09,29,01,40,6.10
2015,09,29,01,41,6.10
2015,09,29,01,42,6.10
2015,09,29,01,43,6.10
2015,09,29,01,44,6.10
2015,09,29,01,45,6.10
2015,09,29,01,46,6.10
2015,09,29,01,47,6.10
2015,09,29,01,48,6.10
2015,09,29,01,49,6.00
2015,09,29,01,50,6.00
2015,09,29,01,51,6.00
2015,09,29,01,52,6.00
2015,09,29,01,53,6.00
2015,09,29,01,54,6.00
2015,09,29,01,55,6.00
2015,09,29,01,56,6.00
2015,09,29,01,57,6.00
2015,09,29,01,58,6.00
2015,09,29,01,59,6.00
2015,09,29,02,00,6.00
2015,09,29,02,01,6.00
2015,09,29,02,02,6.00
2015,09,29,02,03,6.00
2015,09,29,02,04,6.00
2015,09,29,02,05,6.00
2015,09,29,02,06,6.00
2015,09,29,02,07,6.00
2015,09,29,02,08,6.00
2015,09,29,02,09,5.90
2015,09,29,02,10,5.90
2015,09,29,02,11,5.90
2015,09,29,02,12,5.90
2015,09,29,02,13,5.90
2015,09,29,02,14,5.90
2015,09,29,02,15,5.90
2015,09,29,02,16,5.90
2015,09,29,02,17,5.90
2015,09,29,02,18,5.90
2015,09,29,02,19,5.90
2015,09,29,02,20,5.90
2015,09,29,02,21,5.90
2015,09,29,02,22,5.90
2015,09,29,02,23,5.90
2015,09,29,02,24,5.90
2015,09,29,02,25,5.90
2015,09,29,02,26,5.90
2015,09,29,02,27,5.90
2015,09,29,02,28,5.90
2015,09,29,02,29,5.90
2015,09,29,02,30,5.90
2015,09,29,02,31,5.90
2015,09,29,02,32,5.90
2015,09,29,02,33,5.80
2015,09,29,02,34,5.80
2015,09,29,02,35,5.80
2015,09,29,02,36,5.80
2015,09,29,02,37,5.80
2015,09,29,02,38,5.80
2015,09,29,02,39,5.80
2015,09,29,02,40,5.80
2015,09,29,02,41,5.80
2015,09,29,02,42,5.70
2015,09,29,02,43,5.70
2015,09,29,02,44,5.70
2015,09,29,02,45,5.70
2015,09,29,02,46,5.70
2015,09,29,02,47,5.70
2015,09,29,02,48,5.60
2015,09,29,02,49,5.60
2015,09,29,02,50,5.60
2015,09,29,02,51,5.60
2015,09,29,02,52,5.60
2015,09,29,02,53,5.60
2015,09,29,02,54,5.60
2015,09,29,02,55,5.60
2015,09,29,02,56,5.60
2015,09,29,02,57,5.60
2015,09,29,02,58,5.60
2015,09,29,02,59,5.50
2015,09,29,03,00,5.50
2015,09,29,03,01,5.50
2015,09,29,03,02,5.50
2015,09,29,03,03,5.50
2015,09,29,03,04,5.50
2015,09,29,03,05,5.50
2015,09,29,03,06,5.50
2015,09,29,03,07,5.50
2015,09,29,03,08,5.50
2015,09,29,03,09,5.50
2015,09,29,03,10,5.50
2015,09,29,03,11,5.50
2015,09,29,03,12,5.50
2015,09,29,03,13,5.50
2015,09,29,03,14,5.50
2015,09,29,03,15,5.40
2015,09,29,03,16,5.40
2015,09,29,03,17,5.40
2015,09,29,03,18,5.40
2015,09,29,03,19,5.40
2015,09,29,03,20,5.40
2015,09,29,03,21,5.40
2015,09,29,03,22,5.40
2015,09,29,03,23,5.40
2015,09,29,03,24,5.40
2015,09,29,03,25,5.40
2015,09,29,03,26,5.40
2015,09,29,03,27,5.30
2015,09,29,03,28,5.30
2015,09,29,03,29,5.30
2015,09,29,03,30,5.30
2015,09,29,03,31,5.20
2015,09,29,03,32,5.20
2015,09,29,03,33,5.20
2015,09,29,03,34,5.20
2015,09,29,03,35,5.20
2015,09,29,03,36,5.20
2015,09,29,03,37,5.20
2015,09,29,03,38,5.20
2015,09,29,03,39,5.20
2015,09,29,03,40,5.30
2015,09,29,03,41,5.30
2015,09,29,03,42,5.30
2015,09,29,03,43,5.30
2015,09,29,03,44,5.30
2015,09,29,03,45,5.20
2015,09,29,03,46,5.20
2015,09,29,03,47,5.20
2015,09,29,03,48,5.20
2015,09,29,03,49,5.20
2015,09,29,03,50,5.20
2015,09,29,03,51,5.20
2015,09,29,03,52,5.20
2015,09,29,03,53,5.20
2015,09,29,03,54,5.20
2015,09,29,03,55,5.20
2015,09,29,03,56,5.20
2015,09,29,03,57,5.20
2015,09,29,03,58,5.20
2015,09,29,03,59,5.20
2015,09,29,04,00,5.20
2015,09,29,04,01,5.20
2015,09,29,04,02,5.20
2015,09,29,04,03,5.20
2015,09,29,04,04,5.20
2015,09,29,04,05,5.20
2015,09,29,04,06,5.10
2015,09,29,04,07,5.10
2015,09,29,04,08,5.10
2015,09,29,04,09,5.10
2015,09,29,04,10,5.10
2015,09,29,04,11,5.10
2015,09,29,04,12,5.10
2015,09,29,04,13,5.20
2015,09,29,04,14,5.10
2015,09,29,04,15,5.10
2015,09,29,04,16,5.10
2015,09,29,04,17,5.10
2015,09,29,04,18,5.10
2015,09,29,04,19,5.10
2015,09,29,04,20,5.10
2015,09,29,04,21,5.10
2015,09,29,04,22,5.10
2015,09,29,04,23,5.10
2015,09,29,04,24,5.10
2015,09,29,04,25,5.10
2015,09,29,04,26,5.10
2015,09,29,04,27,5.10
2015,09,29,04,28,5.10
2015,09,29,04,29,5.10
2015,09,29,04,30,5.10
2015,09,29,04,31,5.10
2015,09,29,04,32,5.10
2015,09,29,04,33,5.00
2015,09,29,04,34,5.00
2015,09,29,04,35,5.00
2015,09,29,04,36,5.00
2015,09,29,04,37,5.00
2015,09,29,04,38,5.00
2015,09,29,04,39,5.00
2015,09,29,04,40,5.10
2015,09,29,04,41,5.10
2015,09,29,04,42,5.10
2015,09,29,04,43,5.00
2015,09,29,04,44,5.00
2015,09,29,04,45,5.00
2015,09,29,04,46,5.00
2015,09,29,04,47,5.00
2015,09,29,04,48,4.90
2015,09,29,04,49,4.90
2015,09,29,04,50,4.90
2015,09,29,04,51,4.90
2015,09,29,04,52,4.90
2015,09,29,04,53,4.90
2015,09,29,04,54,4.90
2015,09,29,04,55,5.00
2015,09,29,04,56,5.00
2015,09,29,04,57,5.10
2015,09,29,04,58,5.10
2015,09,29,04,59,5.10
2015,09,29,05,00,5.10
2015,09,29,05,01,5.10
2015,09,29,05,02,5.10
2015,09,29,05,03,5.10
2015,09,29,05,04,5.10
2015,09,29,05,05,5.10
2015,09,29,05,06,5.10
2015,09,29,05,07,5.10
2015,09,29,05,08,5.10
2015,09,29,05,09,5.10
2015,09,29,05,10,5.00
2015,09,29,05,11,5.00
2015,09,29,05,12,5.00
2015,09,29,05,13,5.00
2015,09,29,05,14,5.00
2015,09,29,05,15,4.90
2015,09,29,05,16,4.90
2015,09,29,05,17,4.90
2015,09,29,05,18,4.90
2015,09,29,05,19,4.90
2015,09,29,05,20,4.90
2015,09,29,05,21,4.90
2015,09,29,05,22,4.90
2015,09,29,05,23,4.80
2015,09,29,05,24,4.80
2015,09,29,05,25,4.80
2015,09,29,05,26,4.80
2015,09,29,05,27,4.80
2015,09,29,05,28,4.80
2015,09,29,05,29,4.80
2015,09,29,05,30,4.90
2015,09,29,05,31,4.90
2015,09,29,05,32,4.90
2015,09,29,05,33,4.90
2015,09,29,05,34,5.00
2015,09,29,05,35,5.00
2015,09,29,05,36,5.00
2015,09,29,05,37,5.00
2015,09,29,05,38,5.00
2015,09,29,05,39,5.00
2015,09,29,05,40,5.00
2015,09,29,05,41,5.00
2015,09,29,05,42,5.00
2015,09,29,05,43,4.90
2015,09,29,05,44,4.90
2015,09,29,05,45,4.90
2015,09,29,05,46,4.90
2015,09,29,05,47,4.90
2015,09,29,05,48,4.90
2015,09,29,05,49,4.90
2015,09,29,05,50,4.90
2015,09,29,05,51,4.90
2015,09,29,05,52,4.90
2015,09,29,05,53,4.90
2015,09,29,05,54,4.90
2015,09,29,05,55,4.80
2015,09,29,05,56,4.80
2015,09,29,05,57,4.80
2015,09,29,05,58,4.80
2015,09,29,05,59,4.80
2015,09,29,06,00,4.80
2015,09,29,06,01,4.80
2015,09,29,06,02,4.80
2015,09,29,06,03,4.90
2015,09,29,06,04,4.90
2015,09,29,06,05,4.90
2015,09,29,06,06,4.90
2015,09,29,06,07,4.90
2015,09,29,06,08,4.90
2015,09,29,06,09,4.90
2015,09,29,06,10,4.90
2015,09,29,06,11,4.90
2015,09,29,06,12,4.90
2015,09,29,06,13,4.90
2015,09,29,06,14,4.80
2015,09,29,06,15,4.80
2015,09,29,06,16,4.80
2015,09,29,06,17,4.70
2015,09,29,06,18,4.70
2015,09,29,06,19,4.70
2015,09,29,06,20,4.70
2015,09,29,06,21,4.70
2015,09,29,06,22,4.70
2015,09,29,06,23,4.70
2015,09,29,06,24,4.70
2015,09,29,06,25,4.70
2015,09,29,06,26,4.70
2015,09,29,06,27,4.70
2015,09,29,06,28,4.70
2015,09,29,06,29,4.70
2015,09,29,06,30,4.70
2015,09,29,06,31,4.70
2015,09,29,06,32,4.70
2015,09,29,06,33,4.70
2015,09,29,06,34,4.60
2015,09,29,06,35,4.60
2015,09,29,06,36,4.60
2015,09,29,06,37,4.50
2015,09,29,06,38,4.50
2015,09,29,06,39,4.50
2015,09,29,06,40,4.50
2015,09,29,06,41,4.40
2015,09,29,06,42,4.50
2015,09,29,06,43,4.50
2015,09,29,06,44,4.50
2015,09,29,06,45,4.60
2015,09,29,06,46,4.60
2015,09,29,06,47,4.60
2015,09,29,06,48,4.50
2015,09,29,06,49,4.50
2015,09,29,06,50,4.50
2015,09,29,06,51,4.50
2015,09,29,06,52,4.50
2015,09,29,06,53,4.40
2015,09,29,06,54,4.40
2015,09,29,06,55,4.40
2015,09,29,06,56,4.40
2015,09,29,06,57,4.40
2015,09,29,06,58,4.40
2015,09,29,06,59,4.40
2015,09,29,07,00,4.40
2015,09,29,07,01,4.40
2015,09,29,07,02,4.40
2015,09,29,07,03,4.40
2015,09,29,07,04,4.40
2015,09,29,07,05,4.40
2015,09,29,07,06,4.50
2015,09,29,07,07,4.50
2015,09,29,07,08,4.50
2015,09,29,07,09,4.60
2015,09,29,07,10,4.60
2015,09,29,07,11,4.60
2015,09,29,07,12,4.60
2015,09,29,07,13,4.60
2015,09,29,07,14,4.60
2015,09,29,07,15,4.60
2015,09,29,07,16,4.60
2015,09,29,07,17,4.60
2015,09,29,07,18,4.60
2015,09,29,07,19,4.50
2015,09,29,07,20,4.50
2015,09,29,07,21,4.50
2015,09,29,07,22,4.40
2015,09,29,07,23,4.40
2015,09,29,07,24,4.40
2015,09,29,07,25,4.50
2015,09,29,07,26,4.50
2015,09,29,07,27,4.50
2015,09,29,07,28,4.60
2015,09,29,07,29,4.60
2015,09,29,07,30,4.60
2015,09,29,07,31,4.50
2015,09,29,07,32,4.50
2015,09,29,07,33,4.50
2015,09,29,07,34,4.50
2015,09,29,07,35,4.60
2015,09,29,07,36,4.60
2015,09,29,07,37,4.60
2015,09,29,07,38,4.60
2015,09,29,07,39,4.60
2015,09,29,07,40,4.60
2015,09,29,07,41,4.60
2015,09,29,07,42,4.70
2015,09,29,07,43,4.70
2015,09,29,07,44,4.70
2015,09,29,07,45,4.70
2015,09,29,07,46,4.80
2015,09,29,07,47,4.80
2015,09,29,07,48,4.90
2015,09,29,07,49,4.90
2015,09,29,07,50,4.90
2015,09,29,07,51,4.90
2015,09,29,07,52,4.90
2015,09,29,07,53,4.90
2015,09,29,07,54,4.90
2015,09,29,07,55,5.00
2015,09,29,07,56,5.00
2015,09,29,07,57,5.00
2015,09,29,07,58,5.00
2015,09,29,07,59,5.00
2015,09,29,08,00,5.00
2015,09,29,08,01,5.00
2015,09,29,08,02,5.10
2015,09,29,08,03,5.10
2015,09,29,08,04,5.20
2015,09,29,08,05,5.30
2015,09,29,08,06,5.30
2015,09,29,08,07,5.40
2015,09,29,08,08,5.50
2015,09,29,08,09,5.50
2015,09,29,08,10,5.60
2015,09,29,08,11,5.60
2015,09,29,08,12,5.70
2015,09,29,08,13,5.80
2015,09,29,08,14,5.80
2015,09,29,08,15,5.80
2015,09,29,08,16,5.90
2015,09,29,08,17,5.90
2015,09,29,08,18,6.00
2015,09,29,08,19,6.10
2015,09,29,08,20,6.10
2015,09,29,08,21,6.20
2015,09,29,08,22,6.20
2015,09,29,08,23,6.30
2015,09,29,08,24,6.30
2015,09,29,08,25,6.40
2015,09,29,08,26,6.50
2015,09,29,08,27,6.60
2015,09,29,08,28,6.60
2015,09,29,08,29,6.70
2015,09,29,08,30,6.80
2015,09,29,08,31,6.80
2015,09,29,08,32,6.90
2015,09,29,08,33,7.00
2015,09,29,08,34,7.10
2015,09,29,08,35,7.20
2015,09,29,08,36,7.20
2015,09,29,08,37,7.30
2015,09,29,08,38,7.30
2015,09,29,08,39,7.40
2015,09,29,08,40,7.50
2015,09,29,08,41,7.60
2015,09,29,08,42,7.70
2015,09,29,08,43,7.70
2015,09,29,08,44,7.80
2015,09,29,08,45,7.90
2015,09,29,08,46,8.00
2015,09,29,08,47,8.00
2015,09,29,08,48,8.10
2015,09,29,08,49,8.20
2015,09,29,08,50,8.30
2015,09,29,08,51,8.40
2015,09,29,08,52,8.50
2015,09,29,08,53,8.50
2015,09,29,08,54,8.60
2015,09,29,08,55,8.70
2015,09,29,08,56,8.70
2015,09,29,08,57,8.80
2015,09,29,08,58,8.80
2015,09,29,08,59,8.90
2015,09,29,09,00,9.00
2015,09,29,09,01,9.10
2015,09,29,09,02,9.20
2015,09,29,09,03,9.30
2015,09,29,09,04,9.30
2015,09,29,09,05,9.40
2015,09,29,09,06,9.50
2015,09,29,09,07,9.50
2015,09,29,09,08,9.60
2015,09,29,09,09,9.70
2015,09,29,09,10,9.80
2015,09,29,09,11,9.90
2015,09,29,09,12,10.00
2015,09,29,09,13,10.00
2015,09,29,09,14,10.10
2015,09,29,09,15,10.20
2015,09,29,09,16,10.30
2015,09,29,09,17,10.30
2015,09,29,09,18,10.40
2015,09,29,09,19,10.50
2015,09,29,09,20,10.50
2015,09,29,09,21,10.60
2015,09,29,09,22,10.70
2015,09,29,09,23,10.80
2015,09,29,09,24,10.80
2015,09,29,09,25,10.90
2015,09,29,09,26,11.00
2015,09,29,09,27,11.10
2015,09,29,09,28,11.20
2015,09,29,09,29,11.20
2015,09,29,09,30,11.30
2015,09,29,09,31,11.30
2015,09,29,09,32,11.40
2015,09,29,09,33,11.50
2015,09,29,09,34,11.60
2015,09,29,09,35,11.60
2015,09,29,09,36,11.70
2015,09,29,09,37,11.70
2015,09,29,09,38,11.80
2015,09,29,09,39,11.90
2015,09,29,09,40,11.90
2015,09,29,09,41,12.00
2015,09,29,09,42,12.10
2015,09,29,09,43,12.10
2015,09,29,09,44,12.20
2015,09,29,09,45,12.20
2015,09,29,09,46,12.20
2015,09,29,09,47,12.30
2015,09,29,09,48,12.30
2015,09,29,09,49,12.40
2015,09,29,09,50,12.40
2015,09,29,09,51,12.40
2015,09,29,09,52,12.50
2015,09,29,09,53,12.50
2015,09,29,09,54,12.60
2015,09,29,09,55,12.60
2015,09,29,09,56,12.60
2015,09,29,09,57,12.70
2015,09,29,09,58,12.80
2015,09,29,09,59,12.90
2015,09,29,10,00,12.90
2015,09,29,10,01,13.00
2015,09,29,10,02,13.10
2015,09,29,10,03,13.20
2015,09,29,10,04,13.20
2015,09,29,10,05,13.30
2015,09,29,10,06,13.30
2015,09,29,10,07,13.40
2015,09,29,10,08,13.50
2015,09,29,10,09,13.50
2015,09,29,10,10,13.60
2015,09,29,10,11,13.60
2015,09,29,10,12,13.70
2015,09,29,10,13,13.70
2015,09,29,10,14,13.70
2015,09,29,10,15,13.70
2015,09,29,10,16,13.70
2015,09,29,10,17,13.80
2015,09,29,10,18,13.80
2015,09,29,10,19,13.80
2015,09,29,10,20,13.80
2015,09,29,10,21,13.90
2015,09,29,10,22,13.90
2015,09,29,10,23,13.90
2015,09,29,10,24,13.90
2015,09,29,10,25,14.00
2015,09,29,10,26,14.00
2015,09,29,10,27,14.00
2015,09,29,10,28,14.00
2015,09,29,10,29,14.10
2015,09,29,10,30,14.10
2015,09,29,10,31,14.10
2015,09,29,10,32,14.10
2015,09,29,10,33,14.10
2015,09,29,10,34,14.10
2015,09,29,10,35,14.10
2015,09,29,10,36,14.10
2015,09,29,10,37,14.10
2015,09,29,10,38,14.10
2015,09,29,10,39,14.10
2015,09,29,10,40,14.20
2015,09,29,10,41,14.20
2015,09,29,10,42,14.20
2015,09,29,10,43,14.20
2015,09,29,10,44,14.30
2015,09,29,10,45,14.30
2015,09,29,10,46,14.30
2015,09,29,10,47,14.30
2015,09,29,10,48,14.40
2015,09,29,10,49,14.40
2015,09,29,10,50,14.40
2015,09,29,10,51,14.40
2015,09,29,10,52,14.40
2015,09,29,10,53,14.40
2015,09,29,10,54,14.40
2015,09,29,10,55,14.40
2015,09,29,10,56,14.40
2015,09,29,10,57,14.40
2015,09,29,10,58,14.50
2015,09,29,10,59,14.50
2015,09,29,11,00,14.60
2015,09,29,11,01,14.60
2015,09,29,11,02,14.60
2015,09,29,11,03,14.70
2015,09,29,11,04,14.70
2015,09,29,11,05,14.70
2015,09,29,11,06,14.80
2015,09,29,11,07,14.80
2015,09,29,11,08,14.80
2015,09,29,11,09,14.90
2015,09,29,11,10,14.90
2015,09,29,11,11,14.90
2015,09,29,11,12,15.00
2015,09,29,11,13,15.00
2015,09,29,11,14,15.00
2015,09,29,11,15,15.10
2015,09,29,11,16,15.10
2015,09,29,11,17,15.10
2015,09,29,11,18,15.10
2015,09,29,11,19,15.10
2015,09,29,11,20,15.20
2015,09,29,11,21,15.20
2015,09,29,11,22,15.20
2015,09,29,11,23,15.20
2015,09,29,11,24,15.20
2015,09,29,11,25,15.20
2015,09,29,11,26,15.20
2015,09,29,11,27,15.20
2015,09,29,11,28,15.30
2015,09,29,11,29,15.30
2015,09,29,11,30,15.30
2015,09,29,11,31,15.30
2015,09,29,11,32,15.30
2015,09,29,11,33,15.40
2015,09,29,11,34,15.50
2015,09,29,11,35,15.50
2015,09,29,11,36,15.60
2015,09,29,11,37,15.70
2015,09,29,11,38,15.70
2015,09,29,11,39,15.80
2015,09,29,11,40,15.80
2015,09,29,11,41,15.80
2015,09,29,11,42,15.90
2015,09,29,11,43,15.90
2015,09,29,11,44,16.00
2015,09,29,11,45,16.00
2015,09,29,11,46,16.00
2015,09,29,11,47,16.10
2015,09,29,11,48,16.10
2015,09,29,11,49,16.10
2015,09,29,11,50,16.20
2015,09,29,11,51,16.20
2015,09,29,11,52,16.20
2015,09,29,11,53,16.30
2015,09,29,11,54,16.20
2015,09,29,11,55,16.20
2015,09,29,11,56,16.20
2015,09,29,11,57,16.20
2015,09,29,11,58,16.30
2015,09,29,11,59,16.30
2015,09,29,12,00,16.20
2015,09,29,12,01,16.20
2015,09,29,12,02,16.20
2015,09,29,12,03,16.20
2015,09,29,12,04,16.20
2015,09,29,12,05,16.10
2015,09,29,12,06,16.10
2015,09,29,12,07,16.10
2015,09,29,12,08,16.10
2015,09,29,12,09,16.10
2015,09,29,12,10,16.10
2015,09,29,12,11,16.00
2015,09,29,12,12,16.00
2015,09,29,12,13,16.00
2015,09,29,12,14,16.00
2015,09,29,12,15,16.10
2015,09,29,12,16,16.10
2015,09,29,12,17,16.20
2015,09,29,12,18,16.20
2015,09,29,12,19,16.30
2015,09,29,12,20,16.40
2015,09,29,12,21,16.50
2015,09,29,12,22,16.50
2015,09,29,12,23,16.60
2015,09,29,12,24,16.60
2015,09,29,12,25,16.60
2015,09,29,12,26,16.60
2015,09,29,12,27,16.60
2015,09,29,12,28,16.60
2015,09,29,12,29,16.50
2015,09,29,12,30,16.50
2015,09,29,12,31,16.40
2015,09,29,12,32,16.40
2015,09,29,12,33,16.40
2015,09,29,12,34,16.40
2015,09,29,12,35,16.30
2015,09,29,12,36,16.30
2015,09,29,12,37,16.30
2015,09,29,12,38,16.30
2015,09,29,12,39,16.30
2015,09,29,12,40,16.30
2015,09,29,12,41,16.30
2015,09,29,12,42,16.40
2015,09,29,12,43,16.50
2015,09,29,12,44,16.50
2015,09,29,12,45,16.60
2015,09,29,12,46,16.70
2015,09,29,12,47,16.70
2015,09,29,12,48,16.80
2015,09,29,12,49,16.80
2015,09,29,12,50,16.90
2015,09,29,12,51,16.90
2015,09,29,12,52,16.90
2015,09,29,12,53,16.90
2015,09,29,12,54,16.90
2015,09,29,12,55,16.90
2015,09,29,12,56,16.90
2015,09,29,12,57,16.90
2015,09,29,12,58,16.90
2015,09,29,12,59,16.90
2015,09,29,13,00,16.90
2015,09,29,13,01,16.90
2015,09,29,13,02,16.90
2015,09,29,13,03,17.00
2015,09,29,13,04,17.00
2015,09,29,13,05,17.00
2015,09,29,13,06,17.00
2015,09,29,13,07,17.00
2015,09,29,13,08,17.00
2015,09,29,13,09,17.00
2015,09,29,13,10,17.10
2015,09,29,13,11,17.10
2015,09,29,13,12,17.00
2015,09,29,13,13,17.00
2015,09,29,13,14,17.00
2015,09,29,13,15,17.10
2015,09,29,13,16,17.10
2015,09,29,13,17,17.10
2015,09,29,13,18,17.20
2015,09,29,13,19,17.20
2015,09,29,13,20,17.20
2015,09,29,13,21,17.10
2015,09,29,13,22,17.00
2015,09,29,13,23,16.80
2015,09,29,13,24,16.70
2015,09,29,13,25,16.60
2015,09,29,13,26,16.50
2015,09,29,13,27,16.50
2015,09,29,13,28,16.40
2015,09,29,13,29,16.40
2015,09,29,13,30,16.30
2015,09,29,13,31,16.30
2015,09,29,13,32,16.30
2015,09,29,13,33,16.30
2015,09,29,13,34,16.30
2015,09,29,13,35,16.20
2015,09,29,13,36,16.30
2015,09,29,13,37,16.30
2015,09,29,13,38,16.30
2015,09,29,13,39,16.30
2015,09,29,13,40,16.30
2015,09,29,13,41,16.30
2015,09,29,13,42,16.30
2015,09,29,13,43,16.30
2015,09,29,13,44,16.30
2015,09,29,13,45,16.40
2015,09,29,13,46,16.50
2015,09,29,13,47,16.60
2015,09,29,13,48,16.60
2015,09,29,13,49,16.70
2015,09,29,13,50,16.60
2015,09,29,13,51,16.60
2015,09,29,13,52,16.50
2015,09,29,13,53,16.40
2015,09,29,13,54,16.40
2015,09,29,13,55,16.40
2015,09,29,13,56,16.40
2015,09,29,13,57,16.40
2015,09,29,13,58,16.40
2015,09,29,13,59,16.50
2015,09,29,14,00,16.60
2015,09,29,14,01,16.70
2015,09,29,14,02,16.80
2015,09,29,14,03,16.80
2015,09,29,14,04,16.90
2015,09,29,14,05,16.90
2015,09,29,14,06,16.90
2015,09,29,14,07,16.90
2015,09,29,14,08,16.90
2015,09,29,14,09,16.90
2015,09,29,14,10,16.80
2015,09,29,14,11,16.80
2015,09,29,14,12,16.80
2015,09,29,14,13,16.80
2015,09,29,14,14,16.80
2015,09,29,14,15,16.70
2015,09,29,14,16,16.70
2015,09,29,14,17,16.70
2015,09,29,14,18,16.70
2015,09,29,14,19,16.70
2015,09,29,14,20,16.70
2015,09,29,14,21,16.70
2015,09,29,14,22,16.80
2015,09,29,14,23,16.80
2015,09,29,14,24,16.90
2015,09,29,14,25,16.90
2015,09,29,14,26,16.90
2015,09,29,14,27,17.00
2015,09,29,14,28,17.00
2015,09,29,14,29,17.10
2015,09,29,14,30,17.10
2015,09,29,14,31,17.10
2015,09,29,14,32,17.20
2015,09,29,14,33,17.20
2015,09,29,14,34,17.30
2015,09,29,14,35,17.30
2015,09,29,14,36,17.30
2015,09,29,14,37,17.40
2015,09,29,14,38,17.40
2015,09,29,14,39,17.30
2015,09,29,14,40,17.30
2015,09,29,14,41,17.30
2015,09,29,14,42,17.30
2015,09,29,14,43,17.30
2015,09,29,14,44,17.30
2015,09,29,14,45,17.30
2015,09,29,14,46,17.30
2015,09,29,14,47,17.30
2015,09,29,14,48,17.20
2015,09,29,14,49,17.20
2015,09,29,14,50,17.20
2015,09,29,14,51,17.20
2015,09,29,14,52,17.20
2015,09,29,14,53,17.20
2015,09,29,14,54,17.20
2015,09,29,14,55,17.20
2015,09,29,14,56,17.20
2015,09,29,14,57,17.30
2015,09,29,14,58,17.30
2015,09,29,14,59,17.40
2015,09,29,15,00,17.50
2015,09,29,15,01,17.50
2015,09,29,15,02,17.50
2015,09,29,15,03,17.60
2015,09,29,15,04,17.60
2015,09,29,15,05,17.60
2015,09,29,15,06,17.60
2015,09,29,15,07,17.70
2015,09,29,15,08,17.70
2015,09,29,15,09,17.70
2015,09,29,15,10,17.70
2015,09,29,15,11,17.60
2015,09,29,15,12,17.70
2015,09,29,15,13,17.70
2015,09,29,15,14,17.70
2015,09,29,15,15,17.80
2015,09,29,15,16,17.80
2015,09,29,15,17,17.80
2015,09,29,15,18,17.80
2015,09,29,15,19,17.80
2015,09,29,15,20,17.80
2015,09,29,15,21,17.80
2015,09,29,15,22,17.70
2015,09,29,15,23,17.70
2015,09,29,15,24,17.60
2015,09,29,15,25,17.60
2015,09,29,15,26,17.60
2015,09,29,15,27,17.60
2015,09,29,15,28,17.60
2015,09,29,15,29,17.60
2015,09,29,15,30,17.60
2015,09,29,15,31,17.70
2015,09,29,15,32,17.70
2015,09,29,15,33,17.70
2015,09,29,15,34,17.70
2015,09,29,15,35,17.70
2015,09,29,15,36,17.70
2015,09,29,15,37,17.70
2015,09,29,15,38,17.80
2015,09,29,15,39,17.80
2015,09,29,15,40,17.80
2015,09,29,15,41,17.80
2015,09,29,15,42,17.90
2015,09,29,15,43,17.90
2015,09,29,15,44,17.90
2015,09,29,15,45,17.90
2015,09,29,15,46,17.90
2015,09,29,15,47,17.90
2015,09,29,15,48,17.90
2015,09,29,15,49,17.90
2015,09,29,15,50,17.90
2015,09,29,15,51,17.90
2015,09,29,15,52,17.90
2015,09,29,15,53,17.90
2015,09,29,15,54,18.00
2015,09,29,15,55,18.00
2015,09,29,15,56,18.00
2015,09,29,15,57,17.90
2015,09,29,15,58,17.90
2015,09,29,15,59,17.90
2015,09,29,16,00,17.90
2015,09,29,16,01,17.90
2015,09,29,16,02,17.90
2015,09,29,16,03,17.90
2015,09,29,16,04,17.90
2015,09,29,16,05,17.90
2015,09,29,16,06,17.90
2015,09,29,16,07,17.90
2015,09,29,16,08,17.80
2015,09,29,16,09,17.90
2015,09,29,16,10,17.90
2015,09,29,16,11,17.90
2015,09,29,16,12,17.90
2015,09,29,16,13,17.80
2015,09,29,16,14,17.90
2015,09,29,16,15,17.90
2015,09,29,16,16,17.80
2015,09,29,16,17,17.80
2015,09,29,16,18,17.80
2015,09,29,16,19,17.80
2015,09,29,16,20,17.70
2015,09,29,16,21,17.70
2015,09,29,16,22,17.60
2015,09,29,16,23,17.60
2015,09,29,16,24,17.50
2015,09,29,16,25,17.50
2015,09,29,16,26,17.40
2015,09,29,16,27,17.40
2015,09,29,16,28,17.40
2015,09,29,16,29,17.30
2015,09,29,16,30,17.30
2015,09,29,16,31,17.30
2015,09,29,16,32,17.20
2015,09,29,16,33,17.20
2015,09,29,16,34,17.20
2015,09,29,16,35,17.20
2015,09,29,16,36,17.10
2015,09,29,16,37,17.10
2015,09,29,16,38,17.10
2015,09,29,16,39,17.00
2015,09,29,16,40,17.00
2015,09,29,16,41,16.90
2015,09,29,16,42,16.90
2015,09,29,16,43,16.90
2015,09,29,16,44,16.80
2015,09,29,16,45,16.80
2015,09,29,16,46,16.80
2015,09,29,16,47,16.70
2015,09,29,16,48,16.70
2015,09,29,16,49,16.70
2015,09,29,16,50,16.70
2015,09,29,16,51,16.60
2015,09,29,16,52,16.60
2015,09,29,16,53,16.60
2015,09,29,16,54,16.60
2015,09,29,16,55,16.60
2015,09,29,16,56,16.50
2015,09,29,16,57,16.50
2015,09,29,16,58,16.40
2015,09,29,16,59,16.40
2015,09,29,17,00,16.30
2015,09,29,17,01,16.30
2015,09,29,17,02,16.30
2015,09,29,17,03,16.20
2015,09,29,17,04,16.20
2015,09,29,17,05,16.10
2015,09,29,17,06,16.10
2015,09,29,17,07,16.10
2015,09,29,17,08,16.00
2015,09,29,17,09,16.00
2015,09,29,17,10,15.90
2015,09,29,17,11,15.90
2015,09,29,17,12,15.90
2015,09,29,17,13,15.90
2015,09,29,17,14,15.80
2015,09,29,17,15,15.80
2015,09,29,17,16,15.80
2015,09,29,17,17,15.80
2015,09,29,17,18,15.80
2015,09,29,17,19,15.80
2015,09,29,17,20,15.80
2015,09,29,17,21,15.80
2015,09,29,17,22,15.80
2015,09,29,17,23,15.80
2015,09,29,17,24,15.80
2015,09,29,17,25,15.80
2015,09,29,17,26,15.80
2015,09,29,17,27,15.80
2015,09,29,17,28,15.80
2015,09,29,17,29,15.80
2015,09,29,17,30,15.80
2015,09,29,17,31,15.80
2015,09,29,17,32,15.70
2015,09,29,17,33,15.70
2015,09,29,17,34,15.70
2015,09,29,17,35,15.70
2015,09,29,17,36,15.70
2015,09,29,17,37,15.70
2015,09,29,17,38,15.70
2015,09,29,17,39,15.60
2015,09,29,17,40,15.60
2015,09,29,17,41,15.60
2015,09,29,17,42,15.60
2015,09,29,17,43,15.50